Weather History for KXLL - January, 2014

Change the Weather History Date:

Sunday, January 12, 2014

  Actual Average (KABE) Record (KABE)
Temperature  
Mean Temperature 40 °F 28 °F  
Max Temperature 48 °F 36 °F 60 °F (1932)
Min Temperature 32 °F 19 °F -6 °F (1968)
Degree Days  
Heating Degree Days 25 37  
Month to date heating degree days 444  
Since 1 July heating degree days 2639  
Cooling Degree Days 0 0  
Month to date cooling degree days 0  
Year to date cooling degree days 0  
Moisture  
Dew Point 26 °F    
Average Humidity 57    
Maximum Humidity 75    
Minimum Humidity 49    
Precipitation  
Precipitation 0.00 in 0.10 in 1.04 in (2012)
Month to date precipitation 1.14  
Year to date precipitation 1.14  
Snow  
Snow 0.00 in 0.30 in 7.40 in (1994)
Month to date snowfall 3.5  
Since 1 July snowfall 9.4  
Snow Depth -    
Sea Level Pressure  
Sea Level Pressure 29.84 in    
Wind  
Wind Speed 9 mph (West)    
Max Wind Speed 16 mph    
Max Gust Speed 28 mph    
Visibility 10 miles    
Events      
T = Trace of Precipitation, MM = Missing Value Source: NWS Daily Summary

Daily Weather History Graph

Daily Weather History Graph

Search for Another Location

Airport or City:

Trip Planner

Search our weather history database for the weather conditions in past years. The results will help you decide how hot, cold, wet, or windy it might be!

Date:

Astronomy

Jan. 12, 2014 Rise Set
Actual Time 7:24 AM EST 4:56 PM EST
Civil Twilight 6:54 AM EST 5:26 PM EST
Nautical Twilight 6:20 AM EST 6:00 PM EST
Astronomical Twilight 5:47 AM EST 6:33 PM EST
Moon 2:22 PM EST (1/12) 4:21 AM EST (1/12)
Length of Visible Light 10h 32m
Length of Day
9h 31m
Waxing Gibbous, 89% of the Moon is Illuminated
Jan 12
Waxing Gibbous
Jan 15
Full
Jan 24
Last Quarter
Jan 30
New
Feb 6
First Quarter

Hourly Weather History & Observations

Time (EST) Temp. Windchill Dew Point Humidity Pressure Visibility Wind Dir Wind Speed Gust Speed Precip Events Conditions
12:15 AM 48.2 °F - 35.6 °F 62% 29.48 in 10.0 mi West 9.2 mph 19.6 mph N/A   Overcast
12:35 AM 46.4 °F 41.5 °F 35.6 °F 66% 29.49 in 10.0 mi West 10.4 mph 24.2 mph N/A   Scattered Clouds
12:55 AM 46.4 °F 41.5 °F 33.8 °F 62% 29.50 in 10.0 mi West 10.4 mph 23.0 mph N/A   Clear
1:15 AM 46.4 °F 40.7 °F 32.0 °F 57% 29.51 in 10.0 mi West 12.7 mph 27.6 mph N/A   Clear
1:35 AM 46.4 °F 40.7 °F 30.2 °F 53% 29.53 in 10.0 mi West 12.7 mph 24.2 mph N/A   Clear
1:55 AM 44.6 °F 39.7 °F 30.2 °F 57% 29.55 in 10.0 mi West 9.2 mph 17.3 mph N/A   Scattered Clouds
2:15 AM 44.6 °F 40.2 °F 30.2 °F 57% 29.55 in 10.0 mi West 8.1 mph - N/A   Scattered Clouds
2:35 AM 44.6 °F 40.7 °F 30.2 °F 57% 29.57 in 10.0 mi West 6.9 mph - N/A   Mostly Cloudy
2:55 AM 44.6 °F 39.7 °F 30.2 °F 57% 29.58 in 10.0 mi West 9.2 mph 20.7 mph N/A   Overcast
3:15 AM 42.8 °F 38.0 °F 30.2 °F 61% 29.58 in 10.0 mi West 8.1 mph - N/A   Overcast
3:35 AM 42.8 °F 37.5 °F 30.2 °F 61% 29.59 in 10.0 mi West 9.2 mph - N/A   Overcast
3:55 AM 42.8 °F 38.0 °F 30.2 °F 61% 29.59 in 10.0 mi West 8.1 mph - N/A   Mostly Cloudy
4:15 AM 42.8 °F 36.6 °F 30.2 °F 61% 29.60 in 10.0 mi West 11.5 mph 17.3 mph N/A   Mostly Cloudy
4:35 AM 42.8 °F 36.6 °F 28.4 °F 57% 29.61 in 10.0 mi WNW 11.5 mph 19.6 mph N/A   Mostly Cloudy
4:55 AM 41.0 °F 36.4 °F 28.4 °F 61% 29.61 in 10.0 mi West 6.9 mph - N/A   Overcast
5:15 AM 41.0 °F 37.1 °F 28.4 °F 61% 29.62 in 10.0 mi West 5.8 mph - N/A   Overcast
5:35 AM 41.0 °F 34.7 °F 28.4 °F 61% 29.64 in 10.0 mi WNW 10.4 mph 17.3 mph N/A   Scattered Clouds
5:55 AM 41.0 °F 35.8 °F 26.6 °F 57% 29.65 in 10.0 mi West 8.1 mph - N/A   Scattered Clouds
6:15 AM 41.0 °F 34.7 °F 26.6 °F 57% 29.66 in 10.0 mi West 10.4 mph - N/A   Overcast
6:35 AM 41.0 °F 35.2 °F 26.6 °F 57% 29.68 in 10.0 mi West 9.2 mph 19.6 mph N/A   Overcast
6:55 AM 41.0 °F 34.3 °F 26.6 °F 57% 29.70 in 10.0 mi West 11.5 mph 20.7 mph N/A   Overcast
7:15 AM 41.0 °F 35.2 °F 26.6 °F 57% 29.71 in 10.0 mi WNW 9.2 mph - N/A   Overcast
7:35 AM 41.0 °F 35.8 °F 24.8 °F 53% 29.73 in 10.0 mi West 8.1 mph - N/A   Overcast
7:55 AM 41.0 °F 35.2 °F 24.8 °F 53% 29.74 in 10.0 mi West 9.2 mph - N/A   Overcast
8:15 AM 41.0 °F 34.3 °F 24.8 °F 53% 29.76 in 10.0 mi West 11.5 mph 17.3 mph N/A   Overcast
8:35 AM 41.0 °F 34.3 °F 24.8 °F 53% 29.78 in 10.0 mi West 11.5 mph 18.4 mph N/A   Overcast
8:55 AM 41.0 °F 35.2 °F 24.8 °F 53% 29.79 in 10.0 mi West 9.2 mph 19.6 mph N/A   Overcast
9:15 AM 41.0 °F 36.4 °F 24.8 °F 53% 29.81 in 10.0 mi West 6.9 mph 19.6 mph N/A   Overcast
9:35 AM 41.0 °F 33.9 °F 24.8 °F 53% 29.81 in 10.0 mi West 12.7 mph 18.4 mph N/A   Overcast
9:55 AM 41.0 °F 35.2 °F 24.8 °F 53% 29.84 in 10.0 mi West 9.2 mph 20.7 mph N/A   Overcast
10:15 AM 41.0 °F 34.3 °F 23.0 °F 49% 29.86 in 10.0 mi West 11.5 mph 20.7 mph N/A   Overcast
10:35 AM 41.0 °F 36.4 °F 24.8 °F 53% 29.86 in 10.0 mi West 6.9 mph 20.7 mph N/A   Overcast
10:55 AM 41.0 °F 34.7 °F 23.0 °F 49% 29.86 in 10.0 mi West 10.4 mph 17.3 mph N/A   Overcast
11:15 AM 41.0 °F 34.3 °F 23.0 °F 49% 29.86 in 10.0 mi West 11.5 mph 17.3 mph N/A   Overcast
11:35 AM 41.0 °F 33.1 °F 23.0 °F 49% 29.87 in 10.0 mi WNW 15.0 mph 21.9 mph N/A   Overcast
11:55 AM 41.0 °F 33.1 °F 23.0 °F 49% 29.87 in 10.0 mi WNW 15.0 mph 23.0 mph N/A   Overcast
12:15 PM 41.0 °F 35.8 °F 23.0 °F 49% 29.87 in 10.0 mi West 8.1 mph 18.4 mph N/A   Overcast
12:35 PM 41.0 °F 35.8 °F 23.0 °F 49% 29.87 in 10.0 mi WNW 8.1 mph - N/A   Overcast
12:55 PM 41.0 °F 33.1 °F 23.0 °F 49% 29.87 in 10.0 mi West 15.0 mph 21.9 mph N/A   Overcast
1:15 PM 41.0 °F 33.1 °F 23.0 °F 49% 29.88 in 10.0 mi West 15.0 mph 20.7 mph N/A   Overcast
1:35 PM 41.0 °F 33.5 °F 23.0 °F 49% 29.88 in 10.0 mi WNW 13.8 mph 25.3 mph N/A   Overcast
1:55 PM 41.0 °F 35.2 °F 23.0 °F 49% 29.89 in 10.0 mi West 9.2 mph 21.9 mph N/A   Overcast
2:15 PM 41.0 °F 34.7 °F 24.8 °F 53% 29.90 in 10.0 mi West 10.4 mph 16.1 mph N/A   Overcast
2:35 PM 41.0 °F 33.9 °F 24.8 °F 53% 29.92 in 10.0 mi West 12.7 mph 19.6 mph N/A   Overcast
2:55 PM 41.0 °F 32.8 °F 24.8 °F 53% 29.94 in 10.0 mi WSW 16.1 mph 24.2 mph N/A   Overcast
3:15 PM 41.0 °F 37.1 °F 24.8 °F 53% 29.95 in 10.0 mi West 5.8 mph 21.9 mph N/A   Overcast
3:35 PM 41.0 °F 34.3 °F 24.8 °F 53% 29.96 in 10.0 mi West 11.5 mph 18.4 mph N/A   Overcast
3:55 PM 41.0 °F 35.8 °F 24.8 °F 53% 29.97 in 10.0 mi West 8.1 mph - N/A   Overcast
4:15 PM 41.0 °F 36.4 °F 24.8 °F 53% 29.98 in 10.0 mi West 6.9 mph - N/A   Overcast
4:35 PM 41.0 °F 34.7 °F 24.8 °F 53% 29.99 in 10.0 mi West 10.4 mph - N/A   Overcast
4:55 PM 41.0 °F 33.9 °F 23.0 °F 49% 30.00 in 10.0 mi West 12.7 mph 18.4 mph N/A   Overcast
5:15 PM 41.0 °F 36.4 °F 23.0 °F 49% 30.01 in 10.0 mi West 6.9 mph - N/A   Overcast
5:35 PM 41.0 °F 35.2 °F 23.0 °F 49% 30.02 in 10.0 mi West 9.2 mph - N/A   Overcast
5:55 PM 41.0 °F 36.4 °F 24.8 °F 53% 30.03 in 10.0 mi WNW 6.9 mph - N/A   Overcast
6:15 PM 41.0 °F 36.4 °F 24.8 °F 53% 30.04 in 10.0 mi West 6.9 mph - N/A   Overcast
6:35 PM 39.2 °F 35.0 °F 24.8 °F 56% 30.04 in 10.0 mi West 5.8 mph - N/A   Overcast
6:55 PM 37.4 °F 33.8 °F 24.8 °F 60% 30.04 in 10.0 mi West 4.6 mph - N/A   Overcast
7:15 PM 37.4 °F 30.8 °F 24.8 °F 60% 30.04 in 10.0 mi WSW 9.2 mph - N/A   Overcast
7:35 PM 37.4 °F 32.1 °F 23.0 °F 56% 30.05 in 10.0 mi West 6.9 mph - N/A   Overcast
7:55 PM 37.4 °F 32.8 °F 23.0 °F 56% 30.06 in 10.0 mi West 5.8 mph - N/A   Scattered Clouds
8:15 PM 37.4 °F 32.8 °F 23.0 °F 56% 30.06 in 10.0 mi West 5.8 mph - N/A   Clear
8:35 PM 35.6 °F 32.8 °F 23.0 °F 60% 30.07 in 10.0 mi WSW 3.5 mph - N/A   Clear
8:55 PM 35.6 °F 31.7 °F 23.0 °F 60% 30.07 in 10.0 mi SSW 4.6 mph - N/A   Clear
9:15 PM 35.6 °F 32.8 °F 24.8 °F 65% 30.08 in 10.0 mi WSW 3.5 mph - N/A   Clear
9:35 PM 33.8 °F 28.6 °F 23.0 °F 65% 30.09 in 10.0 mi WSW 5.8 mph - N/A   Clear
9:55 PM 33.8 °F 28.6 °F 24.8 °F 70% 30.09 in 10.0 mi WSW 5.8 mph - N/A   Clear
10:15 PM 33.8 °F 30.8 °F 24.8 °F 70% 30.09 in 10.0 mi South 3.5 mph - N/A   Clear
10:35 PM 33.8 °F - 24.8 °F 70% 30.09 in 10.0 mi Calm Calm - N/A   Clear
10:55 PM 32.0 °F 28.7 °F 24.8 °F 75% 30.09 in 10.0 mi WSW 3.5 mph - N/A   Clear
11:15 PM 32.0 °F 26.4 °F 24.8 °F 75% 30.09 in 10.0 mi SSW 5.8 mph - N/A   Clear
11:35 PM 32.0 °F 25.6 °F 24.8 °F 75% 30.09 in 10.0 mi South 6.9 mph - N/A   Clear
11:55 PM 32.0 °F 27.5 °F 24.8 °F 75% 30.09 in 10.0 mi South 4.6 mph - N/A   Clear